Hourly Weather Otoka

Today, 24 July, Saturday

Time Temperature Precipitation Wind Pressure Humidity
00:00 +12°C° 0 mm 2 mps 744 mmHg 77%
01:00 +10°C° 0 mm 2 mps 745 mmHg 79%
02:00 +9°C° 0 mm 2 mps 745 mmHg 83%
03:00 +9°C° 0 mm 2 mps 745 mmHg 83%
04:00 +10°C° 0 mm 2 mps 745 mmHg 83%
05:00 +10°C° 0 mm 2 mps 746 mmHg 82%
06:00 +12°C° 0 mm 1 mps 746 mmHg 77%
07:00 +13°C° 0 mm 1 mps 746 mmHg 73%
08:00 +14°C° 0 mm 1 mps 747 mmHg 68%
09:00 +16°C° 0 mm 2 mps 747 mmHg 58%
10:00 +18°C° 0 mm 2 mps 747 mmHg 49%
11:00 +20°C° 0 mm 2 mps 747 mmHg 39%
12:00 +20°C° 0 mm 2 mps 747 mmHg 39%
13:00 +19°C° 0 mm 2 mps 747 mmHg 40%
14:00 +19°C° 0 mm 2 mps 748 mmHg 40%
15:00 +19°C° 0 mm 2 mps 748 mmHg 42%
16:00 +19°C° 0 mm 2 mps 748 mmHg 44%
17:00 +20°C° 0 mm 1 mps 748 mmHg 46%
18:00 +19°C° 0 mm 1 mps 748 mmHg 51%
19:00 +16°C° 0 mm 1 mps 749 mmHg 56%
20:00 +15°C° 0 mm 1 mps 749 mmHg 62%
21:00 +15°C° 0 mm 1 mps 749 mmHg 62%
22:00 +14°C° 0 mm 2 mps 749 mmHg 62%
23:00 +14°C° 0 mm 2 mps 750 mmHg 63%

Tomorrow, 25 July, Sunday

Time Temperature Precipitation Wind Pressure Humidity
00:00 +14°C° 0 mm 2 mps 750 mmHg 63%
01:00 +14°C° 0 mm 2 mps 750 mmHg 63%
02:00 +14°C° 0 mm 1 mps 750 mmHg 63%
03:00 +14°C° 0 mm 1 mps 750 mmHg 63%
04:00 +14°C° 0 mm 1 mps 751 mmHg 64%
05:00 +14°C° 0 mm 1 mps 751 mmHg 64%
06:00 +15°C° 0 mm 1 mps 751 mmHg 63%
07:00 +16°C° 0 mm 1 mps 751 mmHg 61%
08:00 +18°C° 0 mm 1 mps 752 mmHg 60%
09:00 +19°C° 0 mm 1 mps 752 mmHg 54%
10:00 +20°C° 0 mm 2 mps 752 mmHg 49%
11:00 +21°C° 0 mm 2 mps 752 mmHg 43%
12:00 +21°C° 0 mm 2 mps 752 mmHg 44%
13:00 +21°C° 0 mm 2 mps 752 mmHg 46%
14:00 +23°C° 0 mm 2 mps 752 mmHg 47%
15:00 +22°C° 0 mm 1 mps 752 mmHg 50%
16:00 +22°C° 0 mm 1 mps 752 mmHg 52%
17:00 +22°C° 0 mm 1 mps 752 mmHg 55%
18:00 +21°C° 0 mm 1 mps 752 mmHg 58%
19:00 +20°C° 0 mm 1 mps 752 mmHg 60%
20:00 +19°C° 0 mm 1 mps 752 mmHg 62%
21:00 +19°C° 0 mm 1 mps 753 mmHg 63%
22:00 +18°C° 0 mm 1 mps 753 mmHg 64%
23:00 +18°C° 0 mm 1 mps 753 mmHg 65%

Day after tomorrow, 26 July, Monday

Time Temperature Precipitation Wind Pressure Humidity
00:00 +16°C° 0 mm 1 mps 753 mmHg 66%
01:00 +15°C° 0 mm 1 mps 753 mmHg 68%
02:00 +15°C° 0 mm 1 mps 753 mmHg 70%
03:00 +15°C° 0 mm 1 mps 753 mmHg 70%
04:00 +16°C° 0 mm 1 mps 753 mmHg 69%
05:00 +16°C° 0 mm 1 mps 753 mmHg 69%
06:00 +19°C° 0 mm 1 mps 754 mmHg 64%
07:00 +21°C° 0 mm 1 mps 754 mmHg 60%
08:00 +21°C° 0 mm 2 mps 754 mmHg 55%
09:00 +24°C° 0 mm 2 mps 754 mmHg 49%
10:00 +25°C° 0 mm 2 mps 754 mmHg 44%
11:00 +27°C° 0 mm 2 mps 754 mmHg 38%
12:00 +27°C° 0 mm 2 mps 753 mmHg 38%
13:00 +27°C° 0 mm 2 mps 753 mmHg 38%
14:00 +27°C° 0 mm 3 mps 753 mmHg 38%
15:00 +27°C° 0 mm 2 mps 753 mmHg 40%
16:00 +27°C° 0 mm 2 mps 753 mmHg 41%
17:00 +27°C° 0 mm 2 mps 753 mmHg 43%
18:00 +25°C° 0 mm 2 mps 753 mmHg 51%
19:00 +23°C° 0 mm 2 mps 753 mmHg 59%
20:00 +20°C° 0 mm 2 mps 753 mmHg 67%
21:00 +19°C° 0 mm 2 mps 753 mmHg 70%
22:00 +18°C° 0 mm 2 mps 753 mmHg 72%
23:00 +18°C° 0 mm 2 mps 753 mmHg 75%

27 July, Tuesday

Time Temperature Precipitation Wind Pressure Humidity
00:00 +17°C° 0 mm 2 mps 753 mmHg 77%
01:00 +17°C° 0 mm 2 mps 753 mmHg 79%
02:00 +16°C° 0 mm 2 mps 753 mmHg 82%
03:00 +17°C° 0 mm 2 mps 753 mmHg 80%
04:00 +18°C° 0 mm 1 mps 753 mmHg 79%
05:00 +18°C° 0 mm 1 mps 753 mmHg 78%
06:00 +21°C° 0 mm 1 mps 753 mmHg 70%
07:00 +23°C° 0 mm 1 mps 753 mmHg 62%
08:00 +25°C° 0 mm 1 mps 753 mmHg 54%
09:00 +27°C° 0 mm 1 mps 753 mmHg 48%
10:00 +28°C° 0 mm 1 mps 753 mmHg 42%
11:00 +30°C° 0 mm 1 mps 753 mmHg 35%
12:00 +29°C° 0 mm 1 mps 752 mmHg 37%
13:00 +28°C° 0 mm 2 mps 752 mmHg 39%
14:00 +28°C° 0 mm 2 mps 752 mmHg 42%
15:00 +28°C° 0 mm 2 mps 752 mmHg 43%
16:00 +27°C° 0 mm 2 mps 751 mmHg 45%
17:00 +27°C° 0 mm 2 mps 751 mmHg 46%
18:00 +25°C° 0 mm 2 mps 751 mmHg 55%
19:00 +23°C° 0 mm 1 mps 751 mmHg 64%
20:00 +21°C° 0 mm 1 mps 751 mmHg 72%
21:00 +20°C° 0 mm 1 mps 751 mmHg 75%
22:00 +19°C° 0 mm 1 mps 751 mmHg 77%
23:00 +18°C° 0 mm 1 mps 751 mmHg 79%

28 July, Wednesday

Time Temperature Precipitation Wind Pressure Humidity
00:00 +18°C° 0 mm 1 mps 751 mmHg 79%
01:00 +18°C° 0 mm 1 mps 751 mmHg 80%
02:00 +18°C° 0 mm 1 mps 751 mmHg 80%
03:00 +18°C° 0 mm 1 mps 750 mmHg 80%
04:00 +19°C° 0 mm 1 mps 750 mmHg 79%
05:00 +19°C° 0 mm 1 mps 750 mmHg 79%
06:00 +21°C° 0 mm 1 mps 750 mmHg 71%
07:00 +23°C° 0 mm 1 mps 749 mmHg 62%
08:00 +26°C° 0 mm 1 mps 749 mmHg 54%
09:00 +27°C° 0 mm 2 mps 749 mmHg 49%
10:00 +29°C° 0 mm 2 mps 749 mmHg 44%
11:00 +30°C° 0 mm 2 mps 748 mmHg 38%
12:00 +29°C° 0 mm 2 mps 748 mmHg 42%
13:00 +29°C° 0 mm 2 mps 747 mmHg 45%
14:00 +28°C° 0 mm 1 mps 747 mmHg 48%
15:00 +27°C° 0 mm 1 mps 747 mmHg 52%
16:00 +26°C° 0 mm 2 mps 747 mmHg 55%
17:00 +25°C° 0 mm 2 mps 746 mmHg 58%
18:00 +24°C° 0 mm 2 mps 746 mmHg 63%
19:00 +23°C° 0 mm 2 mps 746 mmHg 69%
20:00 +21°C° 0 mm 2 mps 746 mmHg 74%
21:00 +21°C° 0.1 mm 1 mps 745 mmHg 77%
22:00 +20°C° 0.1 mm 1 mps 745 mmHg 80%
23:00 +19°C° 0.1 mm 1 mps 745 mmHg 84%

29 July, Thursday

Time Temperature Precipitation Wind Pressure Humidity
00:00 +19°C° 0.1 mm 1 mps 745 mmHg 85%
01:00 +18°C° 0.1 mm 1 mps 745 mmHg 87%
02:00 +16°C° 0.1 mm 0 mps 744 mmHg 89%
03:00 +16°C° 0.1 mm 0 mps 744 mmHg 89%
04:00 +17°C° 0.1 mm 0 mps 744 mmHg 89%
05:00 +19°C° 0.1 mm 1 mps 744 mmHg 89%
06:00 +18°C° 0 mm 0 mps 744 mmHg 87%
07:00 +18°C° 0 mm 0 mps 744 mmHg 84%
08:00 +19°C° 0 mm 0 mps 744 mmHg 82%
09:00 +21°C° 0 mm 0 mps 744 mmHg 75%
10:00 +22°C° 0 mm 0 mps 744 mmHg 68%
11:00 +24°C° 0 mm 0 mps 744 mmHg 61%
12:00 +26°C° 0.3 mm 1 mps 744 mmHg 62%
13:00 +26°C° 0.3 mm 1 mps 744 mmHg 63%
14:00 +26°C° 0.3 mm 2 mps 744 mmHg 64%
15:00 +25°C° 0 mm 1 mps 743 mmHg 64%
16:00 +25°C° 0 mm 1 mps 743 mmHg 63%
17:00 +25°C° 0 mm 1 mps 743 mmHg 63%
18:00 +24°C° 0 mm 1 mps 743 mmHg 70%
19:00 +22°C° 0 mm 1 mps 743 mmHg 78%
20:00 +20°C° 0 mm 1 mps 743 mmHg 85%
21:00 +20°C° 0 mm 1 mps 743 mmHg 87%
22:00 +19°C° 0 mm 1 mps 743 mmHg 88%
23:00 +18°C° 0 mm 1 mps 743 mmHg 89%
Show more